Flag for Russia Weather past 2 weeks in Astrakhan, Russia

Now
28 °F

Clear.


Feels Like: 25 °F
Forecast: 29 / 35 °F
Wind: 3 mph from East

Location: Astrakhan

Current Time: Mar 7, 2015 at 5:33:57 AM

Latest Report: Mar 7, 2015 at 5:00 AM


Visibility: 4 mi

Pressure: 30.36 "Hg

Humidity: 93%

Dew point: 27 °F

Location of AstrakhanLocation

Historic Weather in Astrakhan — Graph

°F

Astrakhan temperature yesterday

Maximum temperature yesterday: 45 °F (at 2:30 PM)
Minimum temperature yesterday: 30 °F (at 2:00 AM)
Average temperature yesterday: 38 °F

Past Weeks' High & Low Weather Summary

 TemperatureHumidityPressure
High50 °F (Mar 2, 12:30 PM)100% (Feb 26, 11:00 PM)30.60 "Hg (Feb 26, 11:00 PM)
Low16 °F (Feb 22, 3:00 AM)25% (Feb 23, 3:00 PM)29.98 "Hg (Mar 2, 1:30 PM)
Average33 °F70%30.27 "Hg
* Reported Feb 20 4:00 AM — Mar 7 4:30 AM, Astrakhan, Weather by CustomWeather, © 2015

Note: Actual official high and low records may vary slightly from our data, if they occured in-between our weather recording intervals... More about our weather records

Advertising

Astrakhan weather history for previous 24 hours

 ConditionsComfort  
Time TempWeatherWind HumidityBarometerVisibility
4:30 AM
Sat, Mar 7
28 °FClear.3 mph93%30.36 "Hg4 mi
4:00 AM28 °FClear.6 mph93%30.36 "Hg4 mi
3:30 AM30 °FClear.3 mph86%30.36 "Hg4 mi
3:00 AM30 °FClear.3 mph93%30.36 "Hg4 mi
2:30 AM30 °FClear.6 mph93%30.36 "Hg4 mi
2:00 AM30 °FClear.3 mph93%30.36 "Hg4 mi
1:30 AM32 °FClear.3 mph87%30.36 "Hg4 mi
1:00 AM34 °FClear.3 mph87%30.39 "Hg4 mi
12:30 AM32 °FClear.1 mph93%30.39 "Hg4 mi
12:00 AM30 °FClear.3 mph86%30.39 "Hg5 mi
11:30 PM
Fri, Mar 6
30 °FClear.1 mph86%30.39 "Hg10 mi
11:00 PM30 °FClear.No wind93%30.39 "Hg10 mi
10:30 PM30 °FClear.1 mph93%30.39 "Hg10 mi
10:00 PM32 °FClear.1 mph87%30.39 "Hg10 mi
9:30 PM32 °FClear.1 mph87%30.39 "Hg10 mi
9:00 PM37 °FPartly cloudy.6 mph75%30.39 "HgN/A
8:30 PM37 °FPartly cloudy.6 mph75%30.39 "HgN/A
8:00 PM39 °FPartly cloudy.3 mph75%30.39 "HgN/A
7:30 PM39 °FPartly cloudy.6 mph75%30.39 "HgN/A
7:00 PM39 °FPartly cloudy.6 mph75%30.39 "HgN/A
6:30 PM41 °FBroken clouds.8 mph70%30.39 "HgN/A
6:00 PM43 °FBroken clouds.3 mph57%30.36 "HgN/A
5:30 PM43 °FBroken clouds.3 mph57%30.36 "HgN/A
5:00 PM43 °FBroken clouds.3 mph57%30.36 "HgN/A
4:30 PM43 °FBroken clouds.3 mph57%30.36 "HgN/A
4:00 PM45 °FBroken clouds.3 mph53%30.36 "HgN/A
3:30 PM45 °FBroken clouds.3 mph53%30.36 "HgN/A
3:00 PM45 °FBroken clouds.6 mph53%30.36 "HgN/A
2:30 PM45 °FBroken clouds.3 mph49%30.36 "HgN/A
2:00 PM43 °FBroken clouds.3 mph57%30.36 "HgN/A
1:30 PM43 °FBroken clouds.6 mph57%30.33 "HgN/A
1:00 PM43 °FBroken clouds.3 mph57%30.33 "HgN/A
12:30 PM43 °FBroken clouds.3 mph61%30.33 "HgN/A
12:00 PM43 °FBroken clouds.1 mph61%30.33 "HgN/A
11:30 AM43 °FPartly sunny.3 mph66%30.33 "HgN/A
11:00 AM41 °FPartly sunny.6 mph70%30.33 "HgN/A
10:30 AM41 °FBroken clouds.3 mph70%30.33 "HgN/A
10:00 AM41 °FBroken clouds.1 mph76%30.33 "HgN/A
9:30 AM39 °FBroken clouds.3 mph75%30.33 "HgN/A
9:00 AM37 °FBroken clouds.3 mph81%30.33 "HgN/A
8:30 AM37 °FPartly sunny.3 mph81%30.33 "HgN/A
8:00 AM36 °FPartly sunny.3 mph87%30.33 "HgN/A
7:30 AM32 °FBroken clouds.1 mph93%30.33 "HgN/A
7:00 AM32 °FPartly cloudy.3 mph93%30.33 "HgN/A
6:30 AM32 °FPartly cloudy.3 mph87%30.30 "HgN/A
6:00 AM34 °FPartly cloudy.6 mph87%30.30 "HgN/A
5:30 AM36 °FPartly cloudy.6 mph81%30.30 "HgN/A
5:00 AM36 °FMostly cloudy.6 mph87%30.30 "HgN/A
Weather by CustomWeather, © 2015

See weather overviewHow to use our weather pages